Change the Weather History Date:

Wednesday, January 2, 2013

  Actual Average Record
Temperature  
Mean Temperature 13 °F -  
Max Temperature 21 °F 32 °F 57 °F (2000)
Min Temperature 5 °F 16 °F -7 °F (1945)
Degree Days  
Heating Degree Days 52    
Moisture  
Dew Point 9 °F    
Average Humidity 76    
Maximum Humidity 88    
Minimum Humidity 68    
Precipitation  
Precipitation 0.00 in - - ()
Sea Level Pressure  
Sea Level Pressure 30.22 in    
Wind  
Wind Speed 4 mph (SW)    
Max Wind Speed 9 mph    
Max Gust Speed -    
Visibility 10 miles    
Events      
Averages and records for this station are not official NWS values.
T = Trace of Precipitation, MM = Missing Value Source: NWS Daily Summary

Daily Weather History Graph

Daily Weather History Graph

Search for Another Location

Airport or City:

Trip Planner

Search our weather history database for the weather conditions in past years. The results will help you decide how hot, cold, wet, or windy it might be!

Date:

Astronomy

Jan. 02, 2013 Rise Set
Actual Time 8:03 AM EST 5:20 PM EST
Civil Twilight 7:32 AM EST 5:51 PM EST
Nautical Twilight 6:58 AM EST 6:26 PM EST
Astronomical Twilight 6:24 AM EST 6:59 PM EST
Moon 10:55 PM EST (1/2) 10:41 AM EST (1/2)
Length of Visible Light 10h 18m
Length of Day
9h 16m
Waning Gibbous, 75% of the Moon is Illuminated
Jan 2
Waning Gibbous
Jan 4
Last Quarter
Jan 11
New
Jan 18
First Quarter
Jan 26
Full

Hourly Weather History & Observations

Time (EST) Temp. Windchill Dew Point Humidity Pressure Visibility Wind Dir Wind Speed Gust Speed Precip Events Conditions
12:53 AM 15.1 °F 9.4 °F 9.0 °F 77% 30.17 in 10.0 mi WSW 3.5 mph - N/A   Clear
1:53 AM 16.0 °F 10.4 °F 10.0 °F 77% 30.15 in 10.0 mi WSW 3.5 mph - N/A   Clear
2:53 AM 14.0 °F 8.2 °F 9.0 °F 80% 30.17 in 10.0 mi WSW 3.5 mph - N/A   Clear
3:53 AM 14.0 °F 5.1 °F 10.0 °F 84% 30.18 in 10.0 mi SW 5.8 mph - N/A   Clear
4:53 AM 10.9 °F 4.7 °F 6.1 °F 81% 30.17 in 10.0 mi WSW 3.5 mph - N/A   Clear
5:53 AM 10.0 °F 3.6 °F 6.1 °F 84% 30.20 in 10.0 mi WSW 3.5 mph - N/A   Clear
6:53 AM 9.0 °F - 6.1 °F 88% 30.20 in 10.0 mi Calm Calm - N/A   Clear
7:53 AM 8.1 °F - 3.9 °F 83% 30.19 in 8.0 mi Calm Calm - N/A   Clear
8:53 AM 5.0 °F -4.1 °F 1.9 °F 87% 30.22 in 8.0 mi SW 4.6 mph - N/A   Clear
9:53 AM 12.0 °F 2.7 °F 8.1 °F 84% 30.24 in 10.0 mi SW 5.8 mph - N/A   Clear
10:53 AM 15.1 °F 6.4 °F 8.1 °F 74% 30.26 in 10.0 mi SW 5.8 mph - N/A   Clear
11:53 AM 19.0 °F 11.1 °F 12.0 °F 74% 30.25 in 10.0 mi SW 5.8 mph - N/A   Scattered Clouds
12:03 PM 19.4 °F 12.8 °F 10.4 °F 68% 30.21 in 10.0 mi WSW 4.6 mph - N/A   Mostly Cloudy
12:53 PM 19.9 °F 11.1 °F 10.9 °F 68% 30.24 in 10.0 mi SW 6.9 mph - N/A   Overcast
1:53 PM 19.9 °F 11.1 °F 12.0 °F 71% 30.22 in 10.0 mi SSW 6.9 mph - N/A   Overcast
2:53 PM 21.0 °F 11.4 °F 12.9 °F 71% 30.21 in 10.0 mi SW 8.1 mph - N/A   Overcast
3:53 PM 21.0 °F 12.4 °F 12.9 °F 71% 30.22 in 10.0 mi SSW 6.9 mph - N/A   Overcast
4:53 PM 21.0 °F 10.6 °F 14.0 °F 74% 30.23 in 10.0 mi SSW 9.2 mph - N/A   Overcast
5:53 PM 19.9 °F 12.1 °F 12.9 °F 74% 30.25 in 10.0 mi SW 5.8 mph - N/A   Overcast
6:53 PM 19.9 °F 12.1 °F 12.9 °F 74% 30.26 in 10.0 mi SSW 5.8 mph - N/A   Overcast
7:53 PM 19.0 °F 9.0 °F 10.9 °F 71% 30.26 in 10.0 mi SSW 8.1 mph - N/A   Overcast
8:53 PM 15.1 °F 9.4 °F 7.0 °F 70% 30.26 in 10.0 mi SSW 3.5 mph - N/A   Scattered Clouds
9:53 PM 12.9 °F 6.9 °F 5.0 °F 71% 30.25 in 9.0 mi South 3.5 mph - N/A   Clear
10:53 PM 12.0 °F 5.9 °F 5.0 °F 73% 30.25 in 9.0 mi SSW 3.5 mph - N/A   Clear